ASA1308 KSAN-KSEA

Flight info

Callsign ASA1308
Flight time N/A
Altitude 34000
Route PADRZ2 EHF SHIMR/N0457F360 LKV HAWKZ8
Aircraft B738/M-SDE2E3FGHIRWXY/LB1

Departure

Time 2026-05-08 01:28
Airport San Diego International Airport (KSAN)

Arrival

Time N/A
Airport Seattle–Tacoma International Airport (KSEA)
Time Latitude Longitude Altitude Speed Heading
2026-05-08 01:02 32.73420 -117.20077 20 ft 0 kts 211°
2026-05-08 01:15 32.73432 -117.20068 20 ft 2 kts 211°
2026-05-08 01:15 32.73445 -117.20059 20 ft 2 kts 211°
2026-05-08 01:15 32.73458 -117.20050 20 ft 2 kts 211°
2026-05-08 01:15 32.73471 -117.20041 20 ft 2 kts 211°
2026-05-08 01:16 32.73483 -117.20033 20 ft 0 kts 211°
2026-05-08 01:16 32.73492 -117.20027 20 ft 2 kts 185°
2026-05-08 01:16 32.73506 -117.20031 20 ft 2 kts 145°
2026-05-08 01:16 32.73515 -117.20043 20 ft 0 kts 110°
2026-05-08 01:17 32.73516 -117.20050 20 ft 1 kts 105°
2026-05-08 01:17 32.73517 -117.20052 20 ft 0 kts 105°
2026-05-08 01:18 32.73515 -117.20045 20 ft 3 kts 105°
2026-05-08 01:18 32.73493 -117.19955 20 ft 17 kts 106°
2026-05-08 01:19 32.73461 -117.19823 20 ft 15 kts 106°
2026-05-08 01:19 32.73433 -117.19707 22 ft 13 kts 105°
2026-05-08 01:19 32.73409 -117.19606 22 ft 13 kts 106°
2026-05-08 01:19 32.73379 -117.19485 24 ft 17 kts 107°
2026-05-08 01:20 32.73344 -117.19340 24 ft 17 kts 105°
2026-05-08 01:20 32.73312 -117.19207 23 ft 16 kts 106°
2026-05-08 01:20 32.73281 -117.19081 23 ft 15 kts 107°
2026-05-08 01:20 32.73249 -117.18952 22 ft 18 kts 106°
2026-05-08 01:21 32.73210 -117.18792 21 ft 21 kts 106°
2026-05-08 01:21 32.73169 -117.18617 20 ft 22 kts 106°
2026-05-08 01:21 32.73125 -117.18431 21 ft 23 kts 106°
2026-05-08 01:21 32.73079 -117.18249 20 ft 22 kts 107°
2026-05-08 01:22 32.73039 -117.18086 21 ft 19 kts 106°
2026-05-08 01:22 32.73005 -117.17943 22 ft 16 kts 105°
2026-05-08 01:22 32.72975 -117.17820 24 ft 14 kts 106°
2026-05-08 01:22 32.72961 -117.17735 25 ft 4 kts 84°
2026-05-08 01:23 32.72963 -117.17726 25 ft 0 kts 78°
2026-05-08 01:26 32.72963 -117.17725 25 ft 1 kts 77°
2026-05-08 01:26 32.72996 -117.17671 27 ft 14 kts 25°
2026-05-08 01:27 32.73055 -117.17728 26 ft 13 kts 287°
2026-05-08 01:27 32.73123 -117.18014 23 ft 70 kts 285°
2026-05-08 01:27 32.73330 -117.18869 24 ft 142 kts 286°
2026-05-08 01:27 32.73674 -117.20116 274 ft 164 kts 294°
2026-05-08 01:28 32.74149 -117.21407 661 ft 176 kts 291°
2026-05-08 01:28 32.74681 -117.22657 1060 ft 171 kts 302°
2026-05-08 01:28 32.75341 -117.23843 1558 ft 179 kts 303°
2026-05-08 01:28 32.76067 -117.25111 2050 ft 195 kts 304°
2026-05-08 01:29 32.76868 -117.26502 2535 ft 213 kts 305°
2026-05-08 01:29 32.77739 -117.28007 3025 ft 233 kts 306°
2026-05-08 01:29 32.78709 -117.29684 3556 ft 253 kts 306°
2026-05-08 01:29 32.79707 -117.31409 4360 ft 260 kts 306°
2026-05-08 01:30 32.80780 -117.33126 5296 ft 261 kts 308°
2026-05-08 01:30 32.81872 -117.34808 6213 ft 261 kts 308°
2026-05-08 01:30 32.82998 -117.36541 6993 ft 268 kts 309°
2026-05-08 01:30 32.84140 -117.38306 7785 ft 273 kts 309°
2026-05-08 01:31 32.85299 -117.40099 8519 ft 279 kts 310°
2026-05-08 01:31 32.86476 -117.41924 9206 ft 286 kts 310°
2026-05-08 01:31 32.87694 -117.43813 9935 ft 291 kts 310°